Location: Bluff Heights
(33.7692°N, 118.1592°W)
Time: 22:15:32
(UTC+00:00)

Tiros 1 - Pass Details

Date: 02 August 2021
Orbit: 630 x 663 km, 48.4° (Epoch: 20 September)

Event Time Altitude Azimuth Distance (km) Brightness Sun altitude
Rises 02:09:10 0° 261° (W) 2,982 11.9 7.7°
Reaches altitude 10° 02:11:46 10° 273° (W) 2,068 11.8 7.2°
Maximum altitude 02:15:56 29° 333° (NNW) 1,197 9.2 6.4°
Drops below altitude 10° 02:20:05 10° 34° (NE) 2,058 9.6 5.5°
Sets 02:22:41 0° 46° (NE) 2,964 10.3 5.0°
